Theta_e
314 316 316 317 316 316 317 312 310 312 309 315 316 319 312 311 311 311 310 311 311 312 312 316 314 313 315 316 317 316 313 314 314 312 314 312 314 314 315 316 319 321 319 323 327
314 315 316 316 314 311 312 309 308 308 309 314 310 310 310 311 310 311 311 310 311 313 314 314 313 315 316 316 316 313 312 314 310 310 312 312 314 315 315 315 316 318 318 321 327
314 314 315 316 311 309 308 308 308 308 309 310 309 310 311 311 311 310 310 310 311 312 315 315 313 316 316 315 314 310 313 310 312 313 313 313 313 314 314 313 316 317 317 319 326
314 313 315 316 310 308 308 308 308 308 309 310 309 310 310 311 310 311 311 310 311 314 313 313 314 315 313 313 314 313 311 312 314 313 313 313 313 313 314 316 315 316 316 318 324
314 314 315 315 310 307 307 308 308 308 309 309 309 310 310 313 315 314 311 311 314 314 313 312 315 313 311 312 313 312 311 313 313 313 313 313 313 313 313 315 315 315 315 316 319
314 313 315 315 309 307 307 308 308 308 309 309 309 309 310 314 312 314 312 312 314 313 312 313 314 313 312 311 312 310 312 312 312 312 312 312 311 313 312 313 314 314 315 316 317
314 313 314 314 309 307 307 308 308 308 308 308 308 308 312 313 313 313 313 313 313 312 312 313 314 314 312 310 311 310 310 310 311 312 311 312 309 310 312 312 313 314 314 315 316
313 313 314 313 307 307 307 307 308 307 307 307 308 309 313 313 313 311 314 311 311 311 313 313 313 313 313 311 309 307 306 310 308 310 311 308 308 306 310 311 311 313 314 314 315
313 313 313 310 307 307 307 307 307 307 307 307 308 310 311 312 313 310 312 311 310 311 312 313 313 311 311 307 307 306 308 307 307 309 310 308 307 308 311 311 311 312 313 313 313
312 313 313 308 307 307 307 307 307 307 307 308 309 310 309 313 313 310 311 311 311 312 313 313 312 306 304 305 309 308 306 307 307 309 310 310 308 307 311 311 312 313 314 313 314
312 312 311 308 307 307 307 309 309 308 309 309 309 309 309 312 312 310 311 312 312 312 309 309 308 309 308 305 304 304 305 307 308 309 310 309 307 307 311 310 312 314 314 313 313
312 312 309 307 307 307 309 309 308 308 308 308 308 310 311 312 311 311 311 312 310 307 307 307 307 307 305 305 305 306 307 309 309 309 309 308 309 307 307 309 310 310 311 311 311
312 311 308 307 308 309 309 308 308 308 307 308 309 310 312 312 311 311 311 310 307 308 307 307 307 305 306 307 308 308 307 308 309 307 305 304 305 304 304 306 307 307 308 308 309
311 311 311 311 314 311 311 309 308 309 308 308 309 310 312 311 311 311 311 310 308 307 305 307 306 305 305 307 306 309 307 307 308 307 307 305 306 305 305 304 306 309 310 311 312
312 311 313 313 314 314 310 310 309 311 310 308 308 309 313 310 310 311 311 311 307 307 306 307 306 307 307 307 305 307 306 307 306 307 308 308 307 306 303 307 309 306 310 311 311
311 313 313 314 315 313 311 310 311 311 310 309 308 309 309 310 310 310 312 311 309 308 307 309 308 308 308 306 307 305 305 304 304 304 307 307 305 305 305 306 307 306 309 312 312
311 314 314 314 315 315 314 311 312 309 308 310 308 308 308 309 310 309 309 309 308 308 309 309 310 309 308 308 307 305 305 307 308 307 307 303 305 306 305 305 305 306 311 312 313
306 312 314 314 316 318 315 311 306 308 308 308 308 307 309 309 310 309 309 309 308 307 307 310 311 309 308 308 309 305 306 307 307 306 306 305 307 307 304 306 306 310 311 312 312
304 309 311 314 315 318 315 312 308 308 310 308 307 309 309 309 310 310 309 310 308 305 308 308 308 308 308 308 309 308 307 304 304 292 303 305 304 303 306 307 308 309 310 311 311
304 305 308 311 314 316 314 311 309 309 309 308 309 308 308 308 310 309 309 308 309 306 307 308 309 308 308 308 307 307 304 308 304 303 304 302 303 304 309 308 306 307 309 311 311
300 304 305 308 311 312 314 310 312 312 310 310 309 309 307 309 308 309 309 308 307 306 306 305 309 309 308 309 308 307 307 305 305 305 305 303 304 300 306 306 306 307 310 311 312
298 301 304 305 304 301 312 311 311 311 312 314 310 310 307 308 308 309 309 308 308 307 307 306 308 310 310 307 306 307 307 306 307 306 302 304 305 304 305 306 307 308 309 310 311
299 299 302 305 306 305 304 311 311 312 311 313 314 311 308 308 309 308 308 308 307 307 308 307 308 308 311 309 306 307 306 304 303 305 305 306 305 303 305 306 307 308 309 309 310
298 299 299 301 301 306 307 310 312 311 312 313 313 313 311 310 312 308 308 309 307 307 309 308 306 308 309 308 307 308 306 305 307 307 306 306 307 306 305 305 308 309 308 309 310
298 297 298 302 302 305 308 309 311 312 311 312 313 313 313 313 313 311 311 310 310 310 308 308 308 307 310 307 307 307 306 305 307 307 308 306 307 308 307 304 308 309 309 310 310
298 297 297 296 298 305 307 309 310 311 311 312 312 312 313 314 313 313 311 311 311 310 310 308 306 309 309 310 311 310 306 307 308 306 308 304 306 306 309 307 308 309 309 310 309
298 297 298 297 298 305 306 308 309 308 309 309 310 311 312 312 310 311 311 311 311 311 311 309 307 304 304 310 310 308 309 307 307 306 308 309 307 306 305 305 307 309 309 308 306
Wind_Speed
18 19 20 19 19 21 22 23 24 22 18 17 15 18 15 16 15 14 17 12 18 9 16 13 14 14 14 9 6 5 4 3 6 6 3 7 5 4 4 6 6 7 3 5 20
20 21 19 20 21 23 23 23 23 22 21 16 20 24 22 12 18 22 16 13 12 11 17 16 17 17 8 7 5 4 4 7 6 5 4 9 4 10 4 3 5 7 8 8 22
21 21 19 20 22 24 23 22 22 22 20 20 21 21 18 16 13 27 19 14 15 15 17 16 17 14 5 7 4 4 4 5 3 2 5 11 3 8 8 3 9 11 11 11 25
22 21 20 20 23 24 23 22 22 23 24 26 21 17 15 14 8 10 15 16 17 17 17 18 20 9 5 6 4 5 3 5 5 5 6 8 7 4 10 6 3 7 8 13 21
23 21 22 21 22 24 23 22 21 21 21 19 20 16 16 15 10 4 19 18 18 20 19 20 21 8 8 7 6 3 4 6 7 7 7 6 2 4 10 11 11 5 10 13 16
24 22 23 22 24 24 22 21 19 18 18 18 17 16 16 7 11 6 19 21 20 21 20 18 14 8 11 7 3 5 8 7 4 4 4 2 1 1 2 4 13 12 7 12 16
25 24 24 22 25 24 22 20 18 17 15 15 16 15 16 13 5 9 16 18 19 20 21 17 15 8 13 8 7 12 5 2 3 1 2 1 3 7 9 5 4 13 13 11 14
23 26 24 23 25 23 22 19 18 16 16 14 15 16 6 13 9 12 18 18 18 18 18 14 14 13 5 16 6 5 5 4 1 3 1 3 7 3 2 9 8 9 13 15 15
24 27 24 25 24 22 21 19 17 16 15 14 14 10 4 8 12 13 17 18 19 17 16 15 13 7 8 6 4 6 4 4 1 1 2 2 6 2 1 0 3 8 10 13 15
25 24 23 26 24 22 21 19 17 16 14 12 9 6 7 9 17 16 17 18 16 21 16 10 5 4 3 5 7 6 5 1 3 2 2 1 8 9 9 10 14 15 13 13 14
25 23 25 26 26 24 25 23 15 7 18 5 9 2 10 16 18 16 18 19 21 16 5 4 5 7 10 5 4 7 5 5 1 1 2 4 7 11 19 14 20 20 18 18 18
21 21 26 26 26 27 29 17 18 10 7 4 4 4 14 17 10 18 23 9 9 5 5 5 4 5 10 6 7 5 6 3 2 2 3 1 10 10 12 12 13 15 19 16 13
20 22 26 27 26 28 32 15 19 17 6 5 5 7 10 12 7 21 22 10 6 5 3 7 2 12 6 5 6 2 6 5 4 2 3 3 7 6 2 3 6 4 7 7 7
24 23 24 24 22 26 30 14 19 14 4 3 5 6 11 10 4 16 18 8 3 6 8 4 3 7 8 5 5 5 4 6 7 4 2 3 4 5 3 7 6 10 10 9 7
23 25 26 28 12 25 27 18 17 7 5 3 4 8 13 7 12 9 13 5 9 6 6 5 8 7 5 5 6 3 5 6 4 5 3 3 2 7 3 2 3 7 8 9 9
24 25 27 26 14 24 24 19 15 4 6 5 5 7 7 2 2 8 6 6 7 6 5 3 2 2 4 4 2 10 7 8 5 3 1 1 4 5 3 3 2 4 6 8 9
15 28 29 29 19 25 26 24 4 5 4 6 6 6 5 5 3 3 7 7 7 6 4 3 1 1 4 8 6 4 6 3 2 2 4 2 3 8 3 2 3 2 6 10 13
1 15 30 28 21 28 32 4 4 5 6 3 5 8 6 7 1 3 7 6 2 6 4 7 3 7 3 5 8 6 6 5 7 4 2 2 5 5 2 8 3 4 11 17 20
4 9 18 27 27 29 25 9 9 7 9 9 5 7 4 3 5 4 9 11 7 9 7 5 4 2 2 1 3 5 5 4 8 2 3 3 6 5 3 5 9 13 21 25 23
6 4 7 13 29 29 10 13 7 5 7 7 7 5 8 9 6 7 10 6 7 8 2 7 5 2 1 2 4 4 8 4 3 3 3 3 5 5 5 5 5 10 19 21 22
4 3 5 7 18 14 14 7 3 4 4 6 6 6 6 8 6 7 12 1 7 8 2 6 4 0 3 5 8 3 3 5 5 4 5 3 6 6 8 8 10 14 18 19 20
6 1 8 13 2 2 8 7 4 5 2 2 4 5 8 9 6 6 10 4 14 16 10 5 5 4 5 1 1 1 6 6 5 5 1 3 5 1 6 11 16 15 15 15 16
5 4 7 11 3 2 2 4 2 4 5 4 4 2 3 7 5 5 6 3 17 11 12 8 2 3 3 2 3 5 5 4 5 4 7 6 5 2 6 7 11 17 15 14 14
5 2 2 3 2 3 4 3 6 2 3 3 4 4 4 4 2 8 6 2 10 8 10 15 4 8 12 5 7 6 6 4 4 3 6 6 6 5 7 7 9 11 14 16 15
3 1 2 3 3 2 6 8 6 5 1 3 1 3 5 5 4 5 4 4 2 8 4 6 7 5 1 3 5 5 11 11 10 14 8 8 11 18 17 12 17 12 12 15 14
5 3 3 1 1 4 8 7 7 5 6 3 2 6 1 3 7 8 8 5 6 3 4 0 3 4 2 2 2 4 9 18 19 5 1 6 7 6 21 23 16 15 18 16 13
9 7 4 1 3 3 3 4 10 4 1 7 7 4 6 2 7 13 7 11 11 9 5 7 6 3 4 3 5 4 15 13 7 6 12 10 7 9 7 22 23 20 20 18 14
Wind_Direction
208 201 203 201 203 197 202 201 200 202 193 164 154 196 228 249 241 243 234 215 209 192 185 188 183 179 175 170 148 137 69 151 182 166 196 158 161 153 147 151 166 190 183 146 170
211 209 205 204 202 202 200 199 198 194 185 181 201 211 224 221 245 249 229 217 205 204 187 185 179 170 171 141 137 104 109 205 181 190 174 168 181 155 141 168 205 201 201 170 178
217 211 202 203 201 203 202 198 198 197 190 207 210 208 206 204 233 247 230 211 204 199 189 186 183 172 139 142 137 127 163 171 168 151 158 155 165 164 149 224 228 217 206 190 186
218 210 202 204 198 200 199 197 198 194 193 198 205 203 197 188 188 218 207 198 193 191 187 177 178 168 119 130 138 97 91 136 126 118 137 157 152 193 201 206 228 237 217 206 194
216 212 200 205 195 198 195 198 197 194 193 193 197 194 188 200 230 231 183 189 184 187 187 173 180 154 132 138 122 100 144 109 119 120 121 143 140 243 245 232 242 268 208 212 212
215 211 199 200 192 193 195 193 196 191 190 190 188 191 193 218 228 218 180 182 187 182 180 179 186 167 120 136 118 129 120 118 121 113 103 134 175 247 245 259 232 230 223 217 221
211 205 198 194 190 189 190 187 190 188 187 183 187 189 197 221 227 197 182 185 183 183 176 175 168 151 139 112 120 124 86 71 55 136 83 99 283 232 245 258 247 224 231 233 224
210 203 196 191 188 185 182 183 183 182 179 180 182 184 194 223 221 189 184 179 176 178 180 168 160 135 115 123 62 76 61 123 311 150 51 122 264 273 294 236 250 243 231 238 234
206 196 191 186 185 181 175 175 176 175 175 174 173 172 212 196 193 185 181 174 166 162 167 159 156 106 122 97 55 18 164 178 171 191 113 127 257 292 181 311 227 242 250 259 247
199 193 192 180 178 175 169 166 165 164 160 162 173 170 212 195 181 177 170 163 149 150 140 154 109 86 53 98 189 172 144 165 195 198 82 148 261 281 273 278 280 282 266 263 261
191 196 183 179 173 171 165 154 147 153 169 197 180 166 161 160 163 172 164 159 152 153 140 102 102 180 185 140 141 134 118 133 181 5 153 236 271 275 284 274 274 274 275 276 276
192 194 178 176 171 172 170 171 168 157 159 160 155 176 157 152 136 165 160 159 143 136 113 55 202 190 114 122 119 115 120 132 83 71 132 36 281 267 272 260 271 282 283 288 284
185 184 175 173 175 177 179 173 163 146 123 178 173 173 164 165 139 164 172 148 116 115 147 147 212 140 119 137 115 100 146 169 142 123 75 333 298 316 326 338 331 316 292 293 291
174 173 175 170 175 182 185 171 166 148 84 198 201 188 176 162 89 166 168 154 93 153 144 144 124 134 122 164 131 158 166 125 123 94 198 4 275 302 316 328 42 50 64 77 82
182 175 173 173 179 180 184 175 162 165 136 176 174 172 163 171 137 169 163 137 151 143 127 201 155 142 147 192 159 163 114 110 95 95 85 341 69 271 357 95 77 37 54 63 67
182 182 179 180 169 176 176 169 148 68 211 164 150 171 119 78 86 127 143 112 110 90 42 86 93 110 152 75 73 150 83 54 51 87 79 204 151 277 242 185 150 1 54 60 78
174 178 188 180 174 170 171 160 92 173 182 182 184 170 120 146 106 139 159 150 149 113 139 61 24 32 140 83 3 87 97 47 6 347 209 19 128 245 258 289 270 307 67 81 90
216 165 181 183 176 171 167 111 142 180 188 115 131 116 154 148 123 142 130 160 225 93 128 147 202 175 187 168 171 182 155 157 188 194 199 64 225 248 202 333 200 128 108 104 100
298 149 148 177 189 177 163 190 200 187 140 136 82 126 155 204 132 147 192 192 182 179 142 135 199 48 59 124 144 190 193 156 104 23 67 216 286 321 56 87 109 120 115 107 101
197 209 163 155 190 180 176 206 193 164 124 153 145 164 162 181 141 176 168 189 189 184 183 195 111 10 267 139 49 166 157 79 9 125 226 277 280 231 168 152 138 133 116 108 107
156 175 214 196 154 171 195 189 152 183 134 140 146 141 161 166 161 188 192 196 189 170 133 137 101 242 155 213 167 135 159 63 114 136 161 174 253 213 180 173 158 152 124 112 115
140 116 169 178 112 140 200 162 140 145 176 125 106 109 162 158 146 180 196 233 179 144 160 195 116 145 192 328 335 132 170 156 143 208 204 141 269 338 165 157 151 150 141 121 124
148 123 196 160 170 173 294 176 128 134 168 161 129 147 175 158 143 192 177 197 169 159 165 184 165 87 33 7 343 208 202 139 108 95 187 139 247 12 156 169 152 139 139 138 136
170 131 70 209 250 164 135 179 166 155 130 140 122 112 122 132 24 170 155 177 185 188 169 152 138 174 199 198 131 173 172 177 135 156 162 218 160 196 209 194 180 157 145 144 141
177 173 154 188 201 244 157 175 182 151 215 175 100 198 161 133 119 158 134 127 82 164 125 153 180 141 71 163 136 156 172 173 194 207 182 200 181 192 196 193 183 168 165 155 148
169 164 133 134 117 181 186 185 190 164 165 178 212 163 173 176 193 177 139 171 178 186 141 355 168 118 89 60 156 162 180 191 207 189 147 154 227 198 193 181 176 182 174 171 167
191 171 170 149 155 178 197 167 195 131 106 157 149 118 182 92 52 89 90 140 155 146 147 139 133 116 221 137 104 321 210 188 195 190 185 195 194 153 150 180 187 182 182 177 170